N8DNY-13 Weather Reports


Display with metric or nautical units.
time (UTC)temp
F
wind
direction
speed
MPH
gust
MPH
rain 1hr
in
rain 24hr
in
rain mn
in
humidity
%
barometer
mb
20260903154740 94 280 0.0 0.0 0.00 0.00 0.00 61 1014.8
20260903153231 95 277 0.0 1.0 0.00 0.00 0.00 63 1014.9
20260903151721 95 289 0.0 0.0 0.00 0.00 0.00 61 1014.7
20260903150211 94 289 0.0 0.0 0.00 0.00 0.00 63 1014.9
20260903144701 93 267 0.0 1.0 0.00 0.00 0.00 62 1014.9
20260903143151 91 272 0.0 0.0 0.00 0.00 0.00 66 1014.7
20260903141701 90 264 0.0 1.0 0.00 0.00 0.00 67 1014.7
20260903140131 88 274 0.0 1.0 0.00 0.00 0.00 71 1014.6
20260903134621 86 272 0.0 1.0 0.00 0.00 0.00 72 1014.9
20260903133111 86 272 0.0 1.0 0.00 0.00 0.00 73 1015.0
20260903131620 84 275 0.0 1.0 0.00 0.00 0.00 75 1014.9
20260903130050 84 277 0.0 0.0 0.00 0.00 0.00 77 1015.1
20260903124540 83 273 0.0 1.0 0.00 0.00 0.00 79 1015.3
20260903123030 80 275 0.0 0.0 0.00 0.00 0.00 85 1015.2
20260903121521 78 272 0.0 0.0 0.00 0.00 0.00 89 1015.2
20260903120010 77 274 0.0 1.0 0.00 0.00 0.00 92 1015.1
20260903114522 76 275 0.0 0.0 0.00 0.00 0.00 94 1015.0
20260903113000 75 273 0.0 0.0 0.00 0.00 0.00 94 1014.9
20260903111501 75 265 0.0 0.0 0.00 0.00 0.00 95 1014.8
20260903110010 75 265 0.0 0.0 0.00 0.00 0.00 95 1014.7
20260903104501 75 265 0.0 0.0 0.00 0.00 0.00 95 1014.6
20260903102930 75 265 0.0 0.0 0.00 0.00 0.00 95 1014.7
20260903101441 75 267 0.0 0.0 0.00 0.00 0.00 95 1014.5
20260903095910 75 267 0.0 0.0 0.00 0.00 0.00 94 1014.5
20260903094400 75 267 0.0 0.0 0.00 0.00 0.00 94 1014.2
20260903092851 76 267 0.0 0.0 0.00 0.00 0.00 94 1014.3
20260903091341 76 267 0.0 0.0 0.00 0.00 0.00 94 1014.3
20260903085830 76 267 0.0 0.0 0.00 0.00 0.00 94 1014.3
20260903084320 76 267 0.0 0.0 0.00 0.00 0.00 93 1014.2
20260903082811 76 267 0.0 0.0 0.00 0.00 0.00 93 1014.3
20260903081300 76 267 0.0 0.0 0.00 0.00 0.00 93 1014.3
20260903075751 77 267 0.0 0.0 0.00 0.00 0.00 93 1014.5
20260903074240 77 267 0.0 0.0 0.00 0.00 0.00 93 1014.5
20260903072730 77 267 0.0 0.0 0.00 0.00 0.00 92 1014.3
20260903071240 77 269 0.0 0.0 0.00 0.00 0.00 93 1014.3
20260903065711 77 270 0.0 0.0 0.00 0.00 0.00 93 1014.2
20260903064200 77 270 0.0 0.0 0.00 0.00 0.00 93 1014.3
20260903062651 77 277 0.0 0.0 0.00 0.00 0.00 92 1014.3
20260903061140 77 277 0.0 0.0 0.00 0.00 0.00 92 1014.2
20260903055630 78 277 0.0 0.0 0.00 0.00 0.00 91 1014.3
20260903054120 78 277 0.0 0.0 0.00 0.00 0.00 89 1014.3
20260903052610 79 290 0.0 0.0 0.00 0.00 0.00 88 1014.3
20260903051100 79 264 0.0 0.0 0.00 0.00 0.00 89 1014.0
20260903045550 79 266 0.0 0.0 0.00 0.00 0.00 89 1014.0
20260903044040 79 266 0.0 0.0 0.00 0.00 0.00 88 1013.9
20260903042530 80 266 0.0 0.0 0.00 0.00 0.00 86 1013.9
20260903041021 80 268 0.0 1.0 0.00 0.00 0.00 85 1013.8
20260903035510 81 285 0.0 0.0 0.00 0.00 0.00 83 1013.6
20260903034002 82 272 0.0 0.0 0.00 0.00 0.00 83 1013.4
20260903032500 82 272 0.0 0.0 0.00 0.00 0.00 82 1013.1
20260903030951 83 270 0.0 0.0 0.00 0.00 0.00 80 1013.0
20260903025440 83 283 0.0 1.0 0.00 0.00 0.00 80 1013.0
20260903023931 84 276 0.0 0.0 0.00 0.00 0.00 79 1013.3
20260903022420 83 278 1.0 2.0 0.00 0.00 0.00 79 1013.6
20260903020930 84 278 0.0 0.0 0.00 0.00 0.00 78 1013.7
20260903015401 84 281 1.0 2.0 0.00 0.00 0.00 78 1013.4
20260903013850 84 273 0.0 0.0 0.00 0.00 0.00 77 1013.3
20260903012400 85 282 0.0 0.0 0.00 0.00 0.00 76 1013.4
20260903010830 85 276 0.0 0.0 0.00 0.00 0.00 75 1013.2
20260903005320 86 270 0.0 0.0 0.00 0.00 0.00 74 1013.0
20260903003810 86 273 0.0 1.0 0.00 0.00 0.00 72 1013.2
20260903002301 86 270 0.0 0.0 0.00 0.00 0.00 72 1013.2
20260903000750 87 267 0.0 1.0 0.00 0.00 0.00 71 1013.3
20260902235305 88 281 0.0 0.0 0.00 0.00 0.00 69 1013.3
20260902233740 88 273 0.0 0.0 0.00 0.00 0.00 67 1013.3
20260902232231 89 278 1.0 2.0 0.00 0.00 0.00 65 1013.2
20260902230720 90 274 1.0 2.0 0.00 0.00 0.00 64 1013.2
20260902225211 91 272 0.0 0.0 0.00 0.00 0.00 62 1013.1
20260902223700 91 275 0.0 0.0 0.00 0.00 0.00 62 1013.3
20260902222151 92 253 0.0 1.0 0.00 0.00 0.00 61 1013.1
20260902220700 92 272 2.0 3.0 0.00 0.00 0.00 59 1013.3
20260902215131 94 250 1.0 1.0 0.00 0.00 0.00 58 1013.3
20260902213620 94 278 1.0 3.0 0.00 0.00 0.00 55 1013.4
20260902212130 94 268 2.0 3.0 0.00 0.00 0.00 54 1013.6
20260902210600 94 274 0.0 1.0 0.00 0.00 0.00 56 1013.5
20260902205050 96 279 0.0 1.0 0.00 0.00 0.00 57 1013.7
20260902203540 95 284 1.0 2.0 0.00 0.00 0.00 56 1013.8
20260902202051 94 281 1.0 2.0 0.00 0.00 0.00 56 1013.8
20260902200551 94 267 0.0 0.0 0.00 0.00 0.00 57 1014.2
20260902195020 96 267 1.0 2.0 0.00 0.00 0.00 53 1014.1
20260902193511 97 272 0.0 0.0 0.00 0.00 0.00 54 1014.6
20260902192003 96 280 1.0 1.0 0.00 0.00 0.00 54 1014.7
20260902190501 97 278 0.0 0.0 0.00 0.00 0.00 58 1014.8
20260902184950 97 328 1.0 3.0 0.00 0.00 0.00 54 1014.8
20260902183501 96 282 0.0 1.0 0.00 0.00 0.00 55 1015.1
20260902181931 96 278 0.0 0.0 0.00 0.00 0.00 55 1015.0
20260902180420 95 274 2.0 3.0 0.00 0.00 0.00 56 1015.1
20260902174911 94 278 0.0 0.0 0.00 0.00 0.00 61 1015.4
20260902173401 94 275 0.0 1.0 0.00 0.00 0.00 58 1015.6
20260902171850 94 283 0.0 0.0 0.00 0.00 0.00 61 1015.6
20260902170341 95 280 0.0 0.0 0.00 0.00 0.00 58 1015.8
20260902164831 94 271 0.0 1.0 0.00 0.00 0.00 62 1016.1
20260902163320 93 279 0.0 1.0 0.00 0.00 0.00 63 1016.2
20260902161811 92 275 0.0 0.0 0.00 0.00 0.00 64 1016.2
20260902160300 92 283 0.0 1.0 0.00 0.00 0.00 65 1016.3